Temp
-12 -12 -12 -12 -12 -12 -12 -12 -11 -11 -11 -11 -11 -11 -11 -11 -11 -11 -11 -11 -11 -11 -11 -11 -11 -11 -11 -11 -12 -12 -12 -12 -12 -13 -13 -13 -13 -13 -13 -13 -13 -13 -13 -13 -13 -13 -13
-12 -12 -12 -12 -12 -12 -12 -12 -12 -12 -12 -12 -12 -12 -12 -11 -11 -11 -11 -11 -11 -12 -12 -12 -12 -12 -12 -12 -12 -12 -13 -13 -13 -13 -13 -13 -13 -13 -13 -13 -13 -13 -13 -13 -13 -14 -14
-12 -12 -12 -12 -12 -12 -12 -12 -12 -12 -12 -12 -12 -12 -12 -12 -12 -12 -12 -12 -12 -12 -12 -12 -12 -12 -12 -12 -12 -13 -13 -13 -13 -13 -13 -13 -14 -14 -14 -14 -14 -14 -14 -14 -14 -14 -14
-12 -12 -12 -12 -12 -12 -12 -13 -13 -13 -13 -13 -13 -13 -13 -13 -12 -12 -12 -12 -12 -12 -13 -13 -13 -13 -13 -13 -13 -13 -13 -13 -14 -14 -14 -14 -14 -14 -14 -14 -14 -14 -14 -14 -14 -15 -15
-13 -13 -13 -13 -13 -13 -13 -13 -13 -13 -13 -13 -13 -13 -13 -13 -13 -13 -13 -13 -13 -13 -13 -13 -13 -13 -13 -13 -13 -13 -14 -14 -14 -14 -14 -14 -14 -14 -14 -15 -15 -15 -15 -15 -15 -15 -15
-13 -13 -13 -13 -13 -13 -13 -13 -14 -14 -14 -14 -14 -14 -13 -13 -13 -13 -13 -13 -13 -13 -14 -14 -14 -14 -14 -14 -14 -14 -14 -14 -15 -15 -15 -15 -15 -15 -15 -15 -15 -15 -15 -15 -15 -15 -15
-14 -13 -13 -13 -13 -14 -14 -14 -14 -14 -14 -14 -14 -14 -14 -14 -14 -14 -14 -14 -14 -14 -14 -14 -14 -14 -14 -14 -14 -15 -15 -15 -15 -15 -15 -15 -15 -15 -15 -16 -16 -16 -16 -16 -16 -15 -15
-14 -14 -14 -14 -14 -14 -14 -14 -14 -14 -13 -13 -13 -13 -14 -14 -15 -15 -15 -15 -15 -15 -15 -15 -15 -15 -15 -15 -15 -15 -15 -15 -15 -15 -15 -16 -16 -16 -16 -16 -16 -16 -16 -16 -16 -16 -16
-14 -14 -14 -14 -14 -14 -14 -14 -13 -13 -13 -13 -13 -13 -13 -14 -14 -15 -15 -16 -16 -16 -15 -15 -15 -15 -15 -15 -15 -15 -15 -16 -16 -16 -16 -16 -16 -16 -16 -16 -16 -16 -17 -16 -16 -16 -16
-13 -14 -13 -13 -13 -13 -14 -14 -14 -13 -13 -13 -13 -13 -13 -14 -14 -15 -15 -15 -16 -16 -15 -15 -16 -16 -16 -16 -16 -16 -16 -16 -16 -16 -16 -16 -16 -16 -16 -16 -17 -17 -17 -17 -17 -17 -16
-14 -14 -14 -14 -13 -13 -14 -14 -14 -13 -14 -14 -14 -14 -14 -14 -14 -14 -15 -15 -15 -16 -15 -15 -16 -16 -16 -16 -16 -17 -17 -17 -17 -17 -17 -17 -17 -17 -17 -17 -17 -17 -17 -17 -17 -17 -16
-14 -14 -13 -13 -13 -13 -13 -13 -13 -13 -13 -14 -14 -14 -14 -14 -14 -14 -15 -15 -15 -16 -15 -16 -16 -16 -17 -17 -17 -17 -17 -17 -17 -17 -17 -17 -17 -17 -17 -17 -17 -17 -17 -16 -16 -17 -17
-13 -13 -13 -13 -13 -13 -13 -13 -14 -14 -14 -14 -14 -14 -14 -15 -15 -15 -15 -15 -15 -16 -16 -16 -17 -17 -17 -18 -17 -17 -18 -18 -18 -18 -17 -17 -17 -18 -18 -17 -17 -17 -17 -17 -16 -16 -17
-13 -13 -13 -13 -13 -13 -13 -14 -14 -14 -14 -14 -14 -14 -15 -15 -15 -15 -15 -15 -15 -15 -16 -16 -17 -17 -17 -18 -18 -18 -18 -18 -18 -18 -18 -18 -18 -18 -18 -18 -17 -17 -17 -17 -17 -17 -17
-13 -13 -14 -14 -14 -14 -14 -14 -15 -15 -15 -15 -15 -15 -15 -15 -15 -16 -16 -15 -16 -16 -16 -16 -17 -17 -17 -17 -18 -18 -18 -18 -18 -18 -18 -18 -18 -18 -18 -18 -18 -17 -17 -17 -17 -17 -16
-14 -15 -15 -15 -15 -15 -15 -15 -15 -15 -15 -15 -15 -15 -15 -16 -16 -16 -16 -16 -16 -17 -17 -16 -17 -17 -17 -18 -18 -18 -18 -17 -18 -18 -18 -18 -17 -17 -18 -18 -18 -18 -18 -17 -18 -18 -17
-15 -15 -15 -15 -15 -15 -15 -15 -15 -15 -15 -15 -15 -16 -16 -16 -16 -16 -16 -16 -17 -17 -17 -17 -17 -17 -17 -18 -18 -18 -18 -18 -17 -18 -18 -18 -17 -17 -18 -18 -18 -18 -18 -18 -18 -18 -18
-15 -15 -15 -16 -15 -15 -15 -15 -16 -16 -16 -16 -16 -16 -16 -16 -16 -16 -16 -17 -17 -18 -18 -18 -18 -18 -18 -18 -17 -18 -18 -18 -18 -18 -18 -18 -17 -17 -18 -18 -18 -18 -18 -18 -18 -18 -18
-15 -15 -15 -15 -16 -16 -16 -16 -16 -16 -16 -16 -16 -16 -16 -16 -16 -17 -17 -17 -18 -18 -19 -19 -19 -19 -19 -19 -19 -18 -18 -18 -18 -18 -18 -18 -18 -18 -18 -18 -18 -18 -18 -18 -18 -18 -17
-15 -15 -15 -16 -16 -16 -16 -16 -16 -16 -16 -16 -16 -17 -17 -17 -17 -18 -18 -18 -19 -18 -19 -19 -20 -20 -20 -20 -20 -19 -19 -19 -19 -19 -19 -19 -18 -18 -18 -19 -18 -18 -18 -18 -18 -17 -17
-15 -15 -16 -16 -16 -16 -16 -16 -16 -16 -16 -16 -17 -17 -18 -18 -19 -19 -19 -19 -20 -20 -20 -20 -20 -21 -21 -21 -21 -21 -20 -20 -20 -20 -19 -19 -19 -19 -19 -19 -19 -19 -19 -19 -18 -18 -18
-16 -16 -16 -16 -16 -16 -16 -16 -16 -17 -17 -17 -18 -19 -19 -20 -20 -20 -21 -20 -21 -21 -21 -21 -21 -21 -21 -21 -21 -21 -21 -21 -21 -21 -21 -21 -21 -21 -20 -21 -20 -20 -19 -19 -19 -19 -18
-16 -16 -17 -17 -16 -16 -17 -17 -17 -17 -18 -19 -20 -20 -21 -21 -21 -21 -21 -22 -21 -21 -21 -21 -21 -21 -21 -21 -21 -21 -21 -21 -21 -21 -22 -21 -22 -21 -20 -21 -21 -20 -20 -20 -19 -19 -19
-17 -17 -17 -17 -17 -17 -17 -17 -18 -18 -19 -20 -21 -21 -22 -22 -22 -22 -22 -22 -22 -22 -21 -21 -21 -21 -21 -21 -21 -21 -21 -21 -21 -21 -21 -21 -21 -21 -21 -21 -20 -20 -19 -20 -20 -19 -19
-18 -18 -17 -17 -18 -18 -18 -19 -19 -20 -20 -21 -21 -21 -21 -22 -22 -22 -22 -21 -21 -21 -21 -21 -21 -21 -21 -21 -21 -21 -21 -21 -21 -21 -21 -21 -21 -21 -21 -21 -20 -20 -20 -20 -20 -20 -20
-18 -18 -18 -18 -18 -19 -19 -20 -20 -21 -21 -21 -21 -21 -21 -21 -21 -21 -21 -21 -21 -21 -22 -22 -21 -21 -21 -21 -22 -21 -21 -21 -21 -21 -21 -21 -22 -22 -21 -21 -21 -21 -21 -20 -20 -20 -21
-19 -19 -19 -19 -20 -20 -21 -21 -21 -21 -22 -22 -22 -22 -21 -21 -21 -21 -22 -22 -22 -22 -22 -22 -22 -23 -22 -22 -22 -22 -22 -22 -21 -21 -21 -22 -22 -22 -22 -22 -21 -21 -21 -21 -21 -22 -21
-19 -19 -20 -20 -21 -21 -21 -21 -21 -22 -22 -22 -22 -22 -22 -22 -22 -22 -22 -23 -23 -23 -23 -23 -23 -23 -23 -23 -23 -23 -22 -22 -22 -21 -22 -23 -23 -23 -23 -22 -21 -21 -21 -21 -21 -21 -21
-20 -20 -21 -21 -22 -22 -22 -22 -22 -22 -22 -22 -22 -23 -23 -23 -23 -23 -24 -24 -24 -24 -25 -25 -24 -25 -24 -24 -24 -24 -24 -23 -23 -23 -23 -23 -24 -23 -23 -22 -22 -22 -22 -22 -23 -22 -22
Height
5833 5834 5834 5834 5833 5833 5832 5831 5830 5829 5828 5827 5826 5824 5823 5822 5821 5819 5817 5816 5815 5813 5812 5810 5808 5806 5804 5803 5801 5798 5796 5793 5791 5789 5786 5782 5779 5775 5771 5767 5763 5757 5751 5746 5743 5737 5731
5831 5832 5832 5832 5831 5830 5829 5829 5828 5827 5826 5824 5823 5822 5820 5819 5817 5816 5815 5813 5812 5810 5808 5807 5805 5803 5802 5800 5798 5795 5793 5791 5788 5786 5783 5779 5776 5772 5768 5763 5758 5754 5747 5741 5737 5730 5725
5829 5829 5829 5829 5828 5828 5826 5826 5825 5824 5823 5821 5820 5818 5817 5815 5814 5812 5811 5809 5808 5806 5805 5803 5801 5800 5798 5797 5794 5792 5790 5788 5785 5783 5779 5775 5772 5769 5764 5760 5755 5750 5744 5737 5731 5726 5720
5826 5825 5825 5825 5825 5824 5823 5822 5821 5820 5819 5817 5816 5814 5813 5811 5809 5808 5806 5805 5803 5801 5800 5799 5798 5796 5794 5792 5791 5789 5786 5784 5782 5779 5776 5772 5768 5765 5760 5756 5751 5745 5740 5734 5727 5721 5715
5823 5822 5822 5822 5822 5821 5820 5819 5818 5816 5815 5813 5811 5809 5808 5806 5805 5803 5801 5800 5798 5797 5795 5795 5793 5791 5791 5789 5787 5784 5783 5781 5778 5775 5771 5768 5764 5760 5756 5751 5746 5741 5735 5729 5724 5717 5709
5818 5818 5818 5818 5817 5816 5815 5814 5812 5811 5809 5807 5806 5804 5802 5801 5800 5798 5796 5795 5793 5792 5791 5790 5789 5788 5786 5784 5782 5780 5778 5776 5773 5771 5768 5764 5760 5755 5751 5746 5739 5735 5729 5724 5717 5712 5704
5814 5814 5813 5813 5812 5811 5810 5809 5807 5805 5803 5801 5799 5798 5796 5794 5793 5792 5791 5789 5790 5789 5786 5785 5783 5782 5781 5779 5777 5775 5773 5771 5768 5766 5763 5759 5756 5751 5746 5742 5736 5731 5725 5719 5713 5706 5701
5809 5808 5808 5808 5807 5806 5804 5803 5801 5799 5796 5794 5792 5790 5789 5788 5787 5786 5784 5783 5782 5781 5782 5779 5778 5776 5774 5773 5772 5769 5768 5766 5763 5760 5757 5755 5751 5747 5742 5738 5733 5726 5721 5716 5710 5703 5698
5803 5803 5802 5802 5801 5800 5799 5797 5796 5794 5792 5790 5787 5785 5783 5782 5780 5779 5778 5777 5775 5774 5773 5773 5772 5770 5769 5767 5765 5763 5762 5760 5757 5755 5752 5749 5746 5741 5738 5733 5729 5723 5718 5713 5706 5699 5694
5797 5796 5795 5795 5794 5793 5793 5792 5789 5788 5786 5785 5783 5780 5778 5776 5776 5773 5771 5770 5768 5766 5764 5766 5765 5764 5762 5760 5759 5757 5755 5754 5752 5749 5746 5744 5741 5737 5732 5728 5724 5720 5716 5711 5704 5697 5691
5793 5792 5791 5790 5789 5788 5786 5784 5783 5782 5780 5778 5776 5775 5773 5770 5768 5767 5766 5763 5761 5759 5756 5759 5757 5755 5754 5754 5752 5751 5748 5746 5744 5742 5741 5739 5734 5731 5727 5723 5719 5715 5711 5707 5702 5696 5689
5788 5788 5787 5786 5785 5783 5781 5780 5778 5777 5775 5772 5770 5769 5767 5765 5762 5760 5757 5756 5754 5754 5750 5751 5748 5746 5746 5745 5744 5743 5741 5739 5736 5734 5733 5730 5728 5726 5722 5718 5714 5711 5707 5704 5701 5695 5687
5784 5782 5781 5779 5777 5776 5775 5774 5772 5770 5768 5767 5764 5762 5761 5758 5756 5753 5750 5748 5746 5746 5747 5742 5740 5738 5736 5737 5736 5734 5733 5731 5729 5726 5726 5723 5722 5719 5716 5713 5710 5706 5703 5699 5697 5692 5686
5778 5777 5776 5774 5772 5770 5769 5767 5765 5763 5761 5759 5756 5753 5751 5749 5748 5745 5742 5740 5737 5740 5737 5733 5731 5729 5726 5728 5726 5725 5723 5723 5721 5719 5715 5714 5713 5713 5710 5708 5705 5702 5699 5695 5689 5687 5685
5771 5770 5768 5767 5765 5763 5761 5759 5757 5755 5753 5750 5747 5745 5742 5738 5736 5734 5733 5728 5730 5729 5727 5725 5722 5719 5719 5718 5716 5714 5713 5713 5713 5711 5709 5704 5703 5704 5704 5701 5700 5696 5693 5690 5686 5684 5681
5764 5762 5760 5757 5755 5752 5749 5747 5744 5742 5740 5738 5735 5733 5730 5727 5725 5722 5720 5720 5717 5716 5714 5712 5711 5711 5709 5708 5706 5705 5704 5704 5703 5702 5700 5698 5694 5696 5697 5695 5693 5690 5687 5683 5681 5676 5674
5754 5752 5749 5746 5743 5740 5737 5733 5731 5730 5726 5723 5721 5719 5718 5715 5712 5709 5707 5705 5704 5703 5701 5699 5699 5699 5698 5697 5696 5695 5693 5695 5693 5692 5691 5689 5688 5688 5689 5688 5686 5684 5680 5677 5674 5673 5669
5743 5740 5737 5735 5733 5730 5726 5724 5723 5721 5716 5713 5711 5710 5707 5704 5702 5699 5696 5693 5691 5688 5686 5685 5685 5685 5686 5685 5684 5683 5683 5682 5682 5682 5681 5681 5677 5676 5679 5679 5678 5675 5673 5670 5667 5665 5664
5732 5730 5729 5726 5724 5721 5718 5716 5715 5712 5709 5705 5701 5699 5696 5692 5690 5686 5683 5679 5676 5675 5673 5672 5670 5671 5672 5672 5671 5671 5671 5671 5671 5670 5669 5669 5667 5666 5666 5667 5668 5667 5665 5662 5661 5658 5657
5724 5721 5719 5717 5716 5712 5710 5708 5705 5702 5698 5696 5692 5686 5683 5680 5676 5672 5669 5666 5663 5662 5660 5659 5658 5657 5657 5657 5656 5655 5657 5657 5658 5657 5656 5654 5655 5656 5657 5656 5653 5654 5654 5654 5653 5651 5649
5715 5713 5710 5708 5706 5704 5701 5697 5694 5692 5688 5683 5680 5675 5669 5667 5664 5660 5657 5655 5652 5649 5648 5647 5646 5645 5644 5644 5643 5642 5643 5643 5642 5642 5642 5641 5641 5642 5643 5642 5641 5642 5641 5643 5645 5645 5639
5707 5705 5703 5701 5698 5694 5691 5686 5682 5679 5675 5672 5667 5662 5658 5654 5650 5647 5643 5642 5640 5639 5638 5635 5633 5632 5632 5631 5631 5631 5630 5630 5630 5629 5628 5628 5626 5627 5628 5627 5627 5624 5629 5634 5635 5633 5631
5698 5695 5693 5690 5687 5683 5678 5674 5670 5666 5661 5655 5651 5649 5645 5642 5637 5634 5632 5628 5626 5625 5625 5623 5622 5622 5619 5619 5619 5619 5619 5619 5620 5619 5618 5616 5615 5616 5616 5615 5613 5613 5622 5623 5624 5624 5623
5688 5685 5682 5679 5674 5669 5664 5659 5655 5652 5649 5645 5640 5636 5633 5629 5626 5622 5619 5616 5614 5613 5611 5610 5608 5608 5608 5607 5607 5606 5606 5605 5606 5608 5606 5607 5605 5604 5604 5604 5602 5608 5609 5613 5612 5615 5614
5678 5674 5671 5666 5661 5656 5651 5647 5641 5635 5632 5630 5626 5623 5619 5617 5613 5609 5606 5602 5599 5597 5596 5595 5594 5593 5593 5593 5592 5591 5592 5592 5592 5592 5594 5594 5592 5593 5591 5592 5593 5595 5595 5598 5600 5604 5601
5667 5662 5658 5653 5648 5643 5638 5632 5627 5622 5617 5614 5610 5606 5603 5601 5598 5593 5590 5587 5583 5581 5579 5577 5576 5574 5575 5575 5575 5574 5574 5575 5577 5578 5579 5581 5579 5580 5580 5579 5581 5582 5581 5582 5584 5587 5590
5654 5650 5645 5640 5634 5628 5623 5619 5614 5608 5602 5598 5593 5588 5584 5581 5578 5574 5570 5566 5563 5561 5560 5558 5557 5556 5556 5556 5555 5556 5555 5557 5559 5563 5565 5564 5563 5565 5566 5563 5569 5569 5571 5569 5572 5574 5571
5642 5637 5631 5625 5619 5614 5608 5604 5598 5592 5585 5580 5573 5566 5561 5558 5557 5552 5547 5543 5539 5538 5538 5536 5537 5535 5535 5536 5537 5534 5535 5538 5540 5545 5546 5547 5546 5548 5548 5548 5551 5553 5555 5557 5558 5558 5559
5629 5623 5618 5612 5605 5599 5592 5586 5580 5573 5565 5557 5552 5542 5535 5532 5534 5527 5522 5518 5514 5512 5511 5509 5510 5512 5513 5512 5512 5514 5515 5518 5521 5523 5526 5529 5527 5526 5529 5532 5534 5537 5539 5539 5540 5543 5545
Wind_Speed
10 11 11 11 12 12 13 13 13 14 14 15 15 16 16 16 16 15 14 14 15 15 16 16 16 15 14 15 15 15 14 14 14 15 17 18 19 20 21 22 22 24 27 28 26 29 30
13 12 12 13 13 12 13 15 15 16 16 16 17 17 18 17 17 17 17 16 16 16 16 16 16 16 16 16 15 14 14 14 15 17 18 19 20 20 21 22 24 25 28 30 29 31 32
14 15 14 14 14 15 14 15 17 18 17 17 18 19 19 19 19 19 19 19 18 18 17 16 16 16 17 15 15 14 14 15 16 17 17 20 22 22 22 22 24 25 27 29 29 29 32
16 16 16 16 17 17 17 18 19 20 20 22 22 23 21 20 20 20 21 21 20 19 18 17 17 17 17 17 16 14 15 16 18 18 19 21 22 24 25 27 26 26 26 26 28 29 32
18 18 18 18 18 20 23 23 23 24 26 27 27 25 23 22 23 23 22 22 22 20 19 19 17 17 18 18 18 17 17 17 18 20 22 23 26 26 28 28 29 26 27 28 27 27 32
17 19 20 20 21 20 23 23 26 27 27 29 30 29 29 28 27 26 25 24 23 23 21 20 20 19 19 19 19 20 20 20 20 21 23 25 27 29 30 31 34 31 31 30 32 30 32
20 20 20 21 22 26 25 28 28 30 33 34 34 34 33 32 30 27 25 24 24 24 25 22 22 21 20 21 21 22 23 23 22 23 24 27 28 30 33 32 33 31 31 32 33 32 29
23 26 28 28 30 27 28 30 30 30 30 28 29 30 32 33 32 31 28 27 26 26 22 25 24 23 22 22 23 25 25 24 25 25 26 27 28 31 33 34 32 32 32 32 31 30 28
24 26 26 27 28 29 28 28 26 26 26 28 27 28 28 27 29 31 32 29 30 31 29 24 25 24 25 26 26 25 25 25 26 28 28 28 29 32 33 34 33 32 31 31 30 30 29
17 18 19 21 23 24 24 24 25 25 25 26 26 27 27 26 28 29 29 30 31 34 35 30 25 24 24 24 23 23 25 27 29 29 29 29 29 31 34 35 33 32 28 27 24 27 28
19 20 21 20 21 22 24 25 25 25 24 24 23 23 26 27 27 28 29 30 32 35 36 29 27 26 25 25 26 26 27 29 30 30 31 30 29 30 33 34 33 31 28 25 21 25 26
23 23 23 23 24 25 25 25 26 26 27 27 28 26 27 29 29 29 29 30 31 33 34 31 31 28 28 28 29 30 30 28 30 32 31 29 29 29 33 32 31 28 27 23 20 22 26
25 25 26 26 27 27 28 29 30 31 31 32 35 35 32 32 33 32 32 33 35 32 29 31 29 29 28 31 34 33 33 34 36 35 29 28 28 31 33 32 29 27 27 27 23 19 24
29 30 31 32 33 34 35 36 37 38 38 38 39 40 41 39 39 38 38 40 40 35 32 33 34 35 36 35 36 32 38 35 32 31 38 38 35 33 29 30 29 27 28 29 29 25 22
32 35 36 36 38 39 40 41 42 44 44 45 46 45 48 47 46 45 45 45 40 39 40 39 38 38 36 34 36 38 33 32 31 28 31 30 33 30 29 28 28 28 29 29 28 25 22
37 39 40 43 45 48 50 51 51 52 52 52 52 51 50 48 49 49 50 49 46 42 41 44 45 43 41 37 36 34 32 31 32 33 33 35 38 34 30 31 29 29 30 31 28 31 29
42 44 45 46 50 52 52 50 48 50 47 42 44 45 42 43 44 45 47 48 48 49 48 47 46 47 43 43 42 42 41 37 35 33 32 33 35 36 31 30 29 30 31 31 30 29 30
44 43 44 42 39 38 37 37 37 38 36 36 37 40 41 41 42 43 43 44 46 49 50 50 49 48 47 43 45 44 42 41 40 39 37 36 39 40 35 33 30 30 31 31 32 33 29
35 34 34 33 34 35 36 36 38 39 39 40 41 44 45 46 44 43 43 43 42 42 45 48 50 50 49 46 46 46 45 43 43 42 42 40 41 43 44 42 37 35 34 34 34 33 33
31 31 33 36 37 37 37 38 40 42 45 48 50 49 48 50 49 45 43 42 42 43 41 41 42 43 43 43 44 49 47 47 46 47 47 48 49 48 48 46 46 43 39 37 35 36 34
34 35 35 37 38 38 41 41 43 46 50 51 53 53 51 49 49 46 45 44 40 40 40 37 37 37 39 40 42 45 46 43 43 44 43 45 51 52 51 50 47 47 44 38 34 34 38
35 37 39 41 40 41 46 49 51 53 53 56 55 52 51 49 45 42 41 41 39 38 39 40 41 40 38 36 36 33 33 36 44 42 43 43 46 43 46 45 41 47 44 33 31 31 33
38 40 41 42 46 49 51 51 52 54 56 56 53 50 45 43 42 40 41 41 40 39 40 39 40 40 40 39 39 38 39 38 37 34 36 39 36 36 30 30 32 42 31 30 29 29 29
43 44 46 48 50 52 53 55 57 59 58 55 50 46 44 44 44 45 44 43 43 45 45 46 44 42 40 41 40 40 40 41 41 39 39 39 41 43 39 39 40 34 33 30 31 28 25
46 48 50 52 54 56 57 57 59 56 55 52 48 48 48 49 50 53 53 53 53 52 52 50 48 48 49 47 47 45 44 45 45 43 42 41 44 45 46 45 44 41 42 36 33 29 26
48 50 52 55 56 56 57 56 56 53 53 52 53 54 54 55 56 57 58 59 60 59 58 57 57 56 54 52 51 50 50 48 47 47 45 44 45 46 47 48 45 43 44 42 39 36 25
51 53 55 56 55 55 53 51 53 56 59 61 63 64 64 63 64 65 66 67 66 66 64 63 61 59 60 60 59 58 57 54 53 49 47 48 47 47 45 48 48 47 44 45 44 40 41
54 55 55 55 54 54 56 59 62 63 65 68 69 72 73 72 71 72 73 72 72 69 67 68 66 63 62 61 61 63 63 61 59 56 53 51 51 51 50 51 52 50 48 47 46 44 43
54 55 53 54 56 58 62 65 67 71 72 74 76 78 78 78 75 75 74 73 72 70 68 67 66 63 63 63 63 63 63 62 60 61 58 56 54 55 55 55 52 49 48 48 45 44 43
Wind_Direction
266 279 291 303 312 317 317 317 316 316 314 310 308 307 305 306 307 307 307 307 306 306 307 310 309 308 311 315 318 317 316 318 324 329 332 332 331 331 330 329 330 328 327 330 334 328 330
268 277 285 295 303 310 316 317 316 315 314 314 311 307 304 303 303 304 305 306 306 307 307 306 304 303 307 310 315 313 314 318 325 330 335 337 336 335 333 332 331 331 327 327 333 328 326
271 277 281 286 294 299 307 314 315 312 311 311 314 312 306 301 300 300 301 303 306 307 305 303 300 299 301 303 307 308 310 315 322 329 334 337 338 337 335 335 335 333 327 327 328 323 321
270 273 279 283 288 294 301 303 305 308 309 311 309 311 305 305 302 300 300 301 303 304 304 301 298 297 295 297 302 303 307 313 318 323 328 332 334 333 330 330 332 332 328 327 324 323 321
273 275 278 283 290 292 296 297 299 302 302 305 302 305 304 301 302 301 300 298 298 299 300 298 295 292 292 295 298 299 301 303 311 317 323 329 332 331 332 330 330 332 330 330 328 324 322
278 281 282 282 284 284 290 291 294 296 295 297 299 297 296 296 297 295 296 297 298 298 298 299 296 292 291 292 293 294 296 299 305 312 319 326 328 330 331 332 333 336 334 334 333 330 328
266 268 271 273 273 282 285 292 294 295 295 295 295 293 291 291 290 289 288 288 291 294 294 295 295 292 288 288 289 291 295 296 301 307 315 320 324 329 331 330 332 334 335 336 332 331 329
266 272 276 275 278 281 283 292 295 297 299 300 301 299 295 289 286 287 288 285 285 284 284 290 290 289 287 286 287 290 293 291 297 303 309 314 319 323 328 330 331 332 334 332 332 332 332
275 276 277 277 278 281 287 291 295 297 299 302 304 306 302 292 287 286 292 285 290 286 286 280 282 286 287 286 287 288 287 290 293 300 304 310 314 318 323 327 329 330 332 335 333 336 336
271 273 277 280 279 280 285 289 290 292 297 300 302 306 305 302 298 292 289 285 288 291 290 290 287 290 283 281 282 285 286 289 291 294 297 305 307 312 318 322 325 325 330 337 342 337 338
276 277 277 276 276 280 282 285 288 292 296 298 299 304 305 305 301 301 300 295 291 292 292 302 292 292 286 279 279 283 285 286 290 292 296 301 302 309 314 318 320 322 328 335 343 343 341
274 279 283 286 287 288 290 291 292 296 298 299 299 300 301 301 303 300 297 295 292 288 294 292 294 290 282 277 278 280 280 283 288 289 291 293 296 304 310 312 317 320 325 329 336 343 346
285 284 285 284 284 285 287 289 290 291 294 295 296 297 295 294 295 295 296 294 288 286 296 291 287 287 287 277 280 277 277 281 288 285 287 284 288 298 304 306 309 313 322 325 332 349 350
284 283 283 282 282 283 284 285 285 287 288 288 288 290 292 291 291 289 288 289 288 298 290 286 282 279 278 284 283 281 278 277 282 293 285 283 284 295 296 299 306 307 317 322 324 333 343
283 283 283 284 286 286 286 287 288 288 289 289 289 291 290 287 286 286 285 284 289 291 288 283 279 281 282 282 279 282 285 271 276 287 288 294 290 291 297 302 303 305 310 314 315 315 326
291 291 290 290 289 288 286 288 289 287 288 288 288 289 293 285 284 281 281 285 285 282 281 282 282 280 280 276 275 274 277 279 276 278 282 285 288 291 295 298 299 299 303 307 311 315 320
291 291 288 286 287 289 294 295 296 298 299 298 294 291 291 289 285 281 281 280 280 279 278 278 279 279 278 276 274 273 274 274 271 273 277 283 287 292 295 293 294 294 295 298 301 307 310
287 289 291 295 299 299 303 305 303 302 305 305 302 300 298 295 292 290 285 281 279 277 277 277 277 276 275 275 275 274 273 272 270 273 275 278 282 285 290 292 290 287 288 290 295 299 302
296 298 297 299 301 303 302 302 302 302 303 303 303 301 300 298 296 292 289 284 281 279 276 275 274 275 275 275 274 273 272 272 272 273 275 274 275 281 286 289 286 282 281 283 288 293 300
296 301 303 301 300 301 301 300 300 301 301 302 301 300 298 297 294 291 288 285 284 282 277 276 275 273 273 273 273 273 272 273 273 273 274 274 275 279 284 284 285 281 279 279 284 290 291
300 301 299 296 296 296 297 300 302 302 302 302 302 301 300 298 292 288 285 282 280 280 277 276 274 274 275 274 273 273 272 270 270 271 270 272 278 279 281 280 275 273 271 273 280 283 282
298 296 295 296 297 300 301 301 301 302 303 304 302 301 299 297 292 286 283 281 279 279 278 278 277 275 275 274 275 279 280 274 266 266 269 273 275 276 275 268 265 264 264 277 275 276 277
293 292 293 294 297 298 300 302 303 305 305 303 302 299 297 295 292 289 288 285 281 280 281 280 277 277 279 278 275 274 276 276 275 273 272 271 271 276 279 278 269 262 273 273 273 282 282
292 292 294 295 300 303 305 304 303 303 303 300 297 293 291 291 292 292 292 290 288 285 283 281 281 279 275 276 277 278 278 276 272 269 268 270 270 272 274 272 272 280 279 283 271 274 278
291 291 296 301 303 304 304 303 303 302 300 297 295 293 291 289 288 288 289 289 289 288 287 284 280 279 279 279 279 274 273 273 274 274 269 270 269 270 269 269 272 275 286 282 281 282 285
294 298 301 302 303 303 303 303 302 300 298 295 293 291 289 289 288 287 287 287 287 287 286 285 284 284 283 282 279 277 276 274 272 273 271 268 267 268 271 272 276 280 282 285 282 281 283
300 301 302 302 303 303 303 301 298 296 295 296 295 294 293 291 290 289 289 287 286 284 284 283 283 282 282 280 279 279 278 277 276 275 273 273 271 269 266 266 269 269 267 271 273 273 273
301 301 301 302 303 303 301 299 298 297 297 297 296 294 293 291 290 289 288 288 287 285 283 281 279 277 276 275 275 275 275 275 274 275 275 274 272 270 266 265 266 270 272 270 271 273 274
300 301 302 303 302 301 301 301 299 299 298 297 296 296 294 292 291 289 287 285 282 280 279 276 275 273 272 272 270 269 269 270 271 269 270 269 268 265 266 267 267 266 266 268 269 270 271